Location: Champs
(48.8539°N, 2.6040°E)
Time: 23:08:04
(UTC+00:00)

SPOT 1 Rocket Y - Pass Details

Date: 17 August 2022
Orbit: 784 x 832 km, 98.5° (Epoch: 07 October)

Event Time Altitude Azimuth Distance (km) Brightness Sun altitude
Exits shadow 20:24:32 - 171° (S) 2,550 7.8 -12.7°
Reaches altitude 10° 20:25:00 10° 172° (S) 2,360 7.6 -12.8°
Maximum altitude 20:30:13 73° 257° (WSW) 844 5.8 -13.4°
Drops below altitude 10° 20:35:33 10° 342° (NNW) 2,408 9.0 -14.1°
Sets 20:37:55 0° 345° (NNW) 3,352 9.8 -14.4°
